Flag for U.S.A. Weather past 2 weeks in Paradise, California, U.S.A.

Now
68 °F

Mostly cloudy.


Feels Like: 68 °F
Forecast: 53 / 70 °F
Wind: 14 mph from Southeast

Location: Chico Municipal

Current Time: May 22, 2015 at 11:29:56 PM

Latest Report: May 22, 2015 at 10:55 PM


Visibility: 10 mi

Pressure: 29.97 "Hg

Humidity: 56%

Dew point: 52 °F

Location of ParadiseLocation

Historic Weather in Paradise — Graph

°F

Paradise temperature yesterday

Maximum temperature yesterday: 75 °F (at 3:55 PM)
Minimum temperature yesterday: 54 °F (at 5:15 AM)
Average temperature yesterday: 64 °F

Past Weeks' High & Low Weather Summary

 TemperatureHumidityPressure
High81 °F (May 10, 3:50 PM)88% (May 19, 5:55 AM)30.09 "Hg (May 19, 5:55 AM)
Low48 °F (May 8, 3:55 AM)17% (May 13, 4:49 PM)29.71 "Hg (May 14, 5:50 PM)
Average63 °F55%29.91 "Hg
* Reported May 7 10:15 PM — May 22 10:35 PM, Paradise, Weather by CustomWeather, © 2015

Note: Actual official high and low records may vary slightly from our data, if they occured in-between our weather recording intervals... More about our weather records

Advertising

Paradise weather history for previous 24 hours

 ConditionsComfort  
Time TempWeatherWind HumidityBarometerVisibility
10:35 PM
Fri, May 22
68 °FMostly cloudy.18 mph60%29.97 "Hg10 mi
10:15 PM70 °FMostly cloudy.14 mph57%29.96 "Hg10 mi
9:55 PM72 °FMostly cloudy.9 mph53%29.96 "Hg10 mi
9:35 PM72 °FMostly cloudy.12 mph53%29.95 "Hg10 mi
9:15 PM73 °FMostly cloudy.13 mph44%29.94 "Hg10 mi
8:55 PM73 °FMostly cloudy.9 mph44%29.93 "Hg10 mi
8:35 PM73 °FPartly sunny.9 mph47%29.92 "Hg10 mi
8:15 PM73 °FPartly sunny.10 mph47%29.92 "Hg10 mi
7:55 PM73 °FOvercast.3 mph47%29.91 "Hg10 mi
7:35 PM73 °FPartly sunny.6 mph47%29.91 "Hg10 mi
7:15 PM75 °FScattered clouds.7 mph44%29.91 "Hg10 mi
6:55 PM75 °FScattered clouds.6 mph44%29.91 "Hg10 mi
5:47 PM75 °FBroken clouds.12 mph44%29.90 "Hg40 mi
4:50 PM75 °FBroken clouds.9 mph47%29.91 "Hg40 mi
3:50 PM73 °FBroken clouds.6 mph47%29.91 "Hg40 mi
2:50 PM73 °FScattered clouds.6 mph44%29.93 "Hg40 mi
1:47 PM72 °FBroken clouds.9 mph44%29.94 "Hg40 mi
12:58 PM72 °FScattered clouds.8 mph47%29.96 "Hg40 mi
11:48 AM68 °FBroken clouds.6 mph49%29.98 "Hg40 mi
10:48 AM64 °FBroken clouds.12 mph60%29.99 "Hg40 mi
9:48 AM63 °FPassing clouds.7 mph64%30.00 "Hg40 mi
8:50 AM61 °FBroken clouds.7 mph68%29.99 "Hg40 mi
7:50 AM57 °FMostly cloudy.7 mph77%29.99 "Hg40 mi
6:50 AM57 °FMostly cloudy.No wind77%29.99 "Hg40 mi
6:35 AM57 °FMostly cloudy.No wind77%29.98 "Hg10 mi
6:15 AM57 °FMostly cloudy.No wind77%29.97 "Hg10 mi
5:55 AM57 °FMostly cloudy.No wind77%29.97 "Hg10 mi
5:35 AM57 °FOvercast.No wind77%29.97 "Hg10 mi
5:15 AM57 °FOvercast.No wind77%29.97 "Hg10 mi
4:55 AM57 °FOvercast.No wind77%29.95 "Hg10 mi
4:35 AM57 °FMostly cloudy.7 mph77%29.95 "Hg10 mi
4:15 AM57 °FMostly cloudy.7 mph77%29.95 "Hg10 mi
3:55 AM57 °FMostly cloudy.6 mph77%29.94 "Hg10 mi
3:35 AM59 °FOvercast.No wind72%29.94 "Hg10 mi
3:15 AM59 °FOvercast.8 mph68%29.94 "Hg10 mi
2:55 AM59 °FOvercast.8 mph68%29.93 "Hg10 mi
2:35 AM59 °FMostly cloudy.9 mph68%29.93 "Hg10 mi
2:15 AM61 °FMostly cloudy.10 mph63%29.93 "Hg10 mi
1:55 AM63 °FPassing clouds.12 mph56%29.93 "Hg10 mi
1:35 AM63 °FPassing clouds.12 mph56%29.93 "Hg10 mi
1:15 AM63 °FPassing clouds.10 mph56%29.93 "Hg10 mi
12:55 AM63 °FPassing clouds.10 mph56%29.92 "Hg10 mi
12:35 AM64 °FPassing clouds.8 mph52%29.92 "Hg10 mi
12:15 AM64 °FOvercast.9 mph52%29.92 "Hg10 mi
11:55 PM
Thu, May 21
64 °FPassing clouds.10 mph52%29.92 "Hg10 mi
11:35 PM64 °FPassing clouds.10 mph52%29.92 "Hg10 mi
11:15 PM66 °FPassing clouds.10 mph49%29.91 "Hg10 mi
Weather by CustomWeather, © 2015

See weather overviewHow to use our weather pages